Skip Page Navigation
NASA JPL Caltech
NASA Logo - Jet Propulsion Laboratory + View the NASA Portal
+ Center for Near-Earth Object Studies
JPL Home Earth Solar System Stars & Galaxies Technology
JPL Solar System Dynamics
BODIES ORBITS EPHEMERIDES TOOLS PHYSICAL DATA DISCOVERY FAQ SITE MAP
JPL Small-Body Database Browser
Search: [ help ]  
(2015 FB34)
Classification: Amor [NEO]          SPK-ID: 3713947
Ephemeris | Orbit Diagram | Orbital Elements | Mission Design | Physical Parameters | Close-Approach Data ]

[ hide orbit diagram ]

For accurate long-term ephemerides, please instead use our Horizons system.This orbit viewer was implemented using two-body methods, and hence should not be used for determining accurate long-term trajectories (over several years or decades) or planetary encounter circumstances.


[ revert to old Java-based viewer ]

Orbital Elements at Epoch 2459000.5 (2020-May-31.0) TDB
Reference: JPL 25 (heliocentric ecliptic J2000)
 Element Value Uncertainty (1-sigma)   Units 
e .4929047965138406 1.5823e-08  
a 2.0681494062452 1.0904e-08 au
q 1.04874864399969 3.1082e-08 au
i 5.956327643521381 4.7636e-06 deg
node 189.7407158726663 1.3108e-05 deg
peri 354.612887774842 2.0595e-05 deg
M 266.2431792575373 7.8084e-06 deg
tp 2459283.425220309263
(2021-Mar-09.92522031)
2.4749e-05 TDB
period 1086.35380876567
2.97
8.5914e-06
2.352e-08
d
yr
n .3313837509430163 2.6207e-09 deg/d
Q 3.087550168490711 1.6279e-08 au
  Orbit Determination Parameters
   # obs. used (total)      111  
   data-arc span      1091 days (2.99 yr)  
   first obs. used      2015-03-20  
   last obs. used      2018-03-15  
   planetary ephem.      DE431  
   SB-pert. ephem.      SB431-N16  
   condition code      0  
   norm. resid. RMS      .51694  
   source      ORB  
   producer      Otto Matic  
   solution date      2018-Mar-15 09:42:03  

Additional Information
 Earth MOID = .0510291 au 
 Jupiter MOID = 1.87333 au 
 T_jup = 3.607 
[ show covariance matrix ]

Ephemeris | Orbit Diagram | Orbital Elements | Mission Design | Physical Parameters | Close-Approach Data ]

Physical Parameter Table
Parameter Symbol Value Units Sigma Reference Notes
absolute magnitude H 23.9   n/a MPO339523  

[ show close-approach data ]
Ephemeris | Orbit Diagram | Orbital Elements | Mission Design | Physical Parameters | Close-Approach Data ]
ABOUT SSD CREDITS/AWARDS PRIVACY/COPYRIGHT GLOSSARY LINKS
FirstGov 2020-Oct-27 07:35 UT
(server date/time)  
NASA Home Page
Site Manager:   Ryan S. Park
Webmaster  Alan B. Chamberlin